Home   Weather   Prenzlau   Past weeks

Flag for Germany Past Weather in Prenzlau, Brandenburg, Germany — Yesterday and Last 2 Weeks

Now
21 °F

Ice fog.


Feels Like: 16 °F
Forecast: 25 / 32 °F
Wind: 3 mph from Southeast

Location: Szczecin Airport

Current Time: Jan 18, 2017 at 5:32:22 am

Latest Report: Jan 18, 2017 at 5:00 am


Visibility: 2 mi

Pressure: 30.69 "Hg

Humidity: 93%

Dew Point: 19 °F

Location of PrenzlauLocation

Past Weather in Prenzlau — Graph

°F

Prenzlau Temperature Yesterday

Maximum temperature yesterday: 32 °F (at 2:30 pm)
Minimum temperature yesterday: 19 °F (at 10:30 pm)
Average temperature yesterday: 25 °F

High & Low Weather Summary for the Past Weeks

 TemperatureHumidityPressure
High41 °F (Jan 3, 11:00 pm)100% (Jan 3, 5:00 am)30.69 "Hg (Jan 3, 5:00 am)
Low14 °F (Jan 7, 2:00 am)54% (Jan 5, 1:30 pm)29.06 "Hg (Jan 13, 9:30 am)
Average28 °F89%29.99 "Hg
* Reported Jan 3 4:00 am — Jan 18 4:00 am, Prenzlau, Weather by CustomWeather, © 2017

Note: Actual official high and low records may vary slightly from our data, if they occured in-between our weather recording intervals... More about our weather records

Advertising

Prenzlau Weather History for the Previous 24 Hours

Scroll right to see more
 ConditionsComfort  
Time TempWeatherWind HumidityBarometerVisibility
4:00 am
Wed, Jan 18
21 °FIce fog.2 mph93%30.69 "Hg2 mi
3:30 am19 °FIce fog.3 mph93%30.69 "Hg2 mi
3:00 am19 °FIce fog.2 mph93%30.69 "Hg2 mi
2:30 am21 °FIce fog.2 mph93%30.69 "Hg2 mi
2:00 am21 °FIce fog.2 mph93%30.69 "Hg1 mi
1:30 am19 °FIce fog.3 mph93%30.69 "Hg2 mi
1:00 am21 °FIce fog.2 mph93%30.69 "Hg1 mi
12:30 am19 °FIce fog.2 mph100%30.69 "Hg1 mi
12:00 am19 °FIce fog.1 mph93%30.69 "Hg1 mi
11:30 pm
Tue, Jan 17
19 °FIce fog.1 mph93%30.69 "Hg0 mi
11:00 pm19 °FIce fog.2 mph93%30.69 "Hg0 mi
10:30 pm19 °FIce fog.1 mph93%30.69 "Hg0 mi
10:00 pm21 °FIce fog.1 mph93%30.69 "Hg0 mi
9:30 pm21 °FIce fog.2 mph100%30.69 "Hg0 mi
9:00 pm21 °FIce fog.1 mph100%30.69 "Hg0 mi
8:30 pm23 °FIce fog.1 mph93%30.69 "Hg0 mi
8:00 pm23 °FIce fog.1 mph100%30.66 "Hg0 mi
7:30 pm27 °FIce fog.2 mph93%30.66 "Hg0 mi
7:00 pm27 °FIce fog.No wind93%30.66 "Hg1 mi
6:30 pm27 °FIce fog.2 mph93%30.66 "Hg2 mi
6:00 pm27 °FIce fog.2 mph100%30.63 "Hg2 mi
5:30 pm28 °FIce fog.3 mph93%30.63 "Hg3 mi
5:00 pm30 °FPassing clouds.3 mph86%30.63 "Hg5 mi
4:30 pm30 °FPartly cloudy.3 mph93%30.63 "Hg5 mi
4:00 pm30 °FBroken clouds.2 mph93%30.63 "HgN/A
3:30 pm30 °FBroken clouds.2 mph93%30.63 "HgN/A
3:00 pm30 °FBroken clouds.3 mph93%30.63 "HgN/A
2:30 pm32 °FLow clouds.3 mph87%30.60 "HgN/A
2:00 pm30 °FOvercast.6 mph93%30.60 "HgN/A
1:30 pm30 °FIce fog.2 mph93%30.60 "Hg3 mi
1:00 pm30 °FIce fog.1 mph93%30.60 "Hg3 mi
12:30 pm28 °FClear.2 mph93%30.60 "Hg4 mi
12:00 pm28 °FIce fog.3 mph93%30.60 "Hg3 mi
11:30 am27 °FClear.2 mph93%30.60 "Hg4 mi
11:00 am25 °FSunny.2 mph93%30.60 "Hg10 mi
10:30 am25 °FSunny.2 mph93%30.57 "Hg10 mi
10:00 am25 °FSunny.1 mph93%30.57 "Hg10 mi
9:30 am23 °FPassing clouds.1 mph100%30.57 "HgN/A
9:00 am21 °FSunny.2 mph93%30.57 "Hg10 mi
8:30 am21 °FPartly sunny.1 mph100%30.54 "HgN/A
8:00 am21 °FPassing clouds.1 mph93%30.54 "HgN/A
7:30 am23 °FOvercast.2 mph93%30.51 "HgN/A
7:00 am21 °FPassing clouds.3 mph93%30.51 "HgN/A
6:30 am21 °FPassing clouds.3 mph93%30.51 "HgN/A
6:00 am21 °FPassing clouds.2 mph93%30.51 "HgN/A
5:30 am23 °FFog.1 mph93%30.48 "Hg5 mi
5:00 am21 °FFog.3 mph100%30.48 "Hg5 mi
Weather by CustomWeather, © 2017

See weather overviewHow to use our weather pages